Location: Leo
(52.0556°N, 112.3605°W)
Time: 10:38:57
(UTC+00:00)

Tiangong - Visible Passes

Search period start: 21 January 2026 00:00
Search period end: 31 January 2026 00:00
Orbit: 378 x 393 km, 41.5° (Epoch: 20 January)

Date Brightness Start Highest point End Pass type
(mag) Time Alt. Az. Time Alt. Az. Time Alt. Az.
21 Jan 0.8 13:09:17 10° S 13:09:50 10° SSE 13:10:24 10° SSE visible
21 Jan 0.7 14:44:22 10° SSW 14:45:50 13° S 14:47:20 10° SSE visible
22 Jan 0.6 13:45:04 10° SSW 13:46:36 13° S 13:48:06 10° SSE visible
23 Jan 0.8 12:47:46 12° SSE 12:47:46 12° SSE 12:48:34 10° SSE visible
23 Jan 0.6 14:22:11 10° SSW 14:23:16 11° S 14:24:21 10° S visible
24 Jan 0.4 13:23:09 12° SSW 13:23:52 12° S 13:25:19 10° SSE visible
26 Jan 0.7 13:01:28 11° S 13:01:28 11° S 13:01:53 10° S visible
